Location: Newark
(45.5167°N, 11.1667°E)
Time: 16:24:29
(UTC+00:00)

Vanguard 1 - Visible Passes

Search period start: 11 December 2019 00:00
Search period end: 21 December 2019 00:00
Orbit: 652 x 3832 km, 34.3° (Epoch: 10 December)

Date Brightness Start Highest point End Pass type
(mag) Time Alt. Az. Time Alt. Az. Time Alt. Az.
11 Dec 13.6 01:13:52 27° SSE 01:19:57 30° SE 01:36:48 10° E visible
11 Dec 13.2 03:26:40 20° SW 03:43:58 51° SSE 04:01:14 10° E visible
11 Dec 12.9 05:46:51 10° WSW 06:08:36 58° S 06:22:25 10° ESE visible
11 Dec 14.2 23:21:42 11° ESE 23:21:42 11° ESE 23:25:06 10° ESE visible
12 Dec 13.5 01:34:28 32° S 01:40:38 36° SE 01:58:43 10° E visible
12 Dec 13.1 03:47:15 20° SW 04:05:07 55° SSE 04:22:20 10° E visible
12 Dec 13.0 06:08:14 10° W 06:29:41 56° S 06:43:10 10° ESE visible
12 Dec 14.0 23:42:08 17° ESE 23:42:08 17° ESE 23:51:20 10° E visible
13 Dec 13.3 01:54:54 36° S 02:01:26 42° SSE 02:20:19 10° E visible
13 Dec 13.0 04:07:39 19° WSW 04:26:19 58° S 04:43:21 10° E visible
14 Dec 13.8 00:02:24 23° ESE 00:02:24 23° ESE 00:14:51 10° E visible
14 Dec 13.2 02:15:09 40° S 02:22:21 48° SSE 02:41:44 10° E visible
14 Dec 13.0 04:27:54 17° WSW 04:47:31 60° S 05:04:19 10° ESE visible
15 Dec 13.6 00:22:33 29° SE 00:22:33 29° SE 00:37:23 10° E visible
15 Dec 13.1 02:35:17 41° SSW 02:43:23 53° SSE 03:03:01 10° E visible
15 Dec 13.0 04:48:01 14° WSW 05:08:44 60° S 05:25:12 10° ESE visible
16 Dec 13.4 00:42:35 35° SE 00:42:35 35° SE 00:59:23 10° E visible
16 Dec 13.1 02:55:19 41° SW 03:04:31 57° SSE 03:24:12 10° E visible
16 Dec 13.0 05:08:03 12° W 05:29:53 58° S 05:46:00 10° ESE visible
16 Dec 14.2 22:49:49 11° E 22:49:49 11° E 22:50:42 10° E visible
17 Dec 13.3 01:02:32 42° SE 01:02:32 42° SE 01:21:05 10° E visible
17 Dec 13.0 03:15:16 39° SW 03:25:43 60° S 03:45:19 10° E visible
17 Dec 13.1 05:28:38 10° W 05:50:56 55° SSW 06:06:41 10° SE visible
17 Dec 14.0 23:09:42 16° E 23:09:42 16° E 23:14:24 10° E visible
18 Dec 13.1 01:22:25 48° SSE 01:22:25 48° SSE 01:42:35 10° E visible
18 Dec 13.0 03:35:07 36° WSW 03:46:58 61° S 04:06:21 10° ESE visible
18 Dec 13.1 05:50:06 10° W 06:11:53 51° SSW 06:27:13 10° SE visible
18 Dec 13.9 23:29:31 21° ESE 23:29:31 21° ESE 23:37:03 10° E visible
19 Dec 13.0 01:42:13 53° SSE 01:42:36 53° SSE 02:03:58 10° E visible
19 Dec 13.0 03:54:56 32° WSW 04:08:13 61° S 04:27:19 10° ESE visible
19 Dec 13.2 06:11:39 10° W 06:32:41 46° SSW 06:47:33 10° SE visible
19 Dec 13.7 23:49:17 27° ESE 23:49:17 27° ESE 23:59:10 10° E visible
20 Dec 12.9 02:01:58 56° S 02:03:41 57° SSE 02:25:15 10° E visible
20 Dec 13.0 04:14:41 28° WSW 04:29:26 60° S 04:48:11 10° ESE visible
